SCP
0 0 0 0 0 0 0 0 0 0 0 0 0 0 0 0 0 0 0 0 0 0 0 0 0 0 0 0 0 0 0 0 0 0 0 0 0 0 0 0 0 0 0
0 0 0 0 0 0 0 0 0 0 0 0 0 0 0 0 0 0 0 0 0 0 0 0 0 0 0 0 0 0 0 0 0 0 0 0 0 0 0 0 0 0 0
0 0 0 0 0 0 0 0 0 0 0 0 0 0 0 0 0 0 0 0 0 0 0 0 0 0 0 0 0 0 0 0 0 0 0 0 0 0 0 0 0 0 0
0 0 0 0 0 0 1 1 1 1 1 1 1 0 0 0 0 0 0 0 0 0 0 0 0 0 0 0 0 0 0 0 0 0 0 0 0 0 0 0 0 0 0
0 0 0 0 1 1 1 1 1 1 1 1 1 1 0 0 0 0 0 0 0 0 0 0 0 0 0 0 0 0 0 0 0 0 0 0 0 0 0 0 0 0 0
0 0 1 1 1 1 1 1 1 1 1 1 1 1 0 0 0 0 0 0 0 0 0 0 0 0 0 0 0 0 0 0 0 0 0 0 0 0 0 0 0 0 0
0 1 1 1 1 1 1 1 1 1 1 1 1 1 0 0 0 0 0 0 0 0 0 0 0 0 0 0 0 0 0 0 0 0 0 0 0 0 0 0 0 0 0
1 1 1 1 1 1 1 1 1 1 1 1 1 1 1 0 0 0 0 0 0 0 0 0 0 0 0 0 0 0 0 0 0 0 0 0 0 0 0 0 0 0 0
1 1 1 1 1 1 1 1 1 1 1 1 1 1 1 1 1 0 0 0 0 0 0 0 0 0 0 0 0 0 0 0 0 0 0 0 0 0 0 0 0 0 0
1 1 1 1 1 1 1 1 1 1 1 1 1 1 1 1 1 1 1 0 0 0 0 0 0 0 0 0 0 0 0 0 0 0 0 0 0 0 0 0 0 0 0
1 1 1 1 1 1 1 1 1 1 1 1 1 1 1 1 1 1 1 1 0 0 0 0 0 0 0 0 0 0 0 0 0 0 0 0 0 0 0 0 0 0 0
1 1 1 1 1 1 1 1 1 1 1 1 1 1 1 1 1 1 1 1 1 0 0 0 0 0 0 0 0 0 0 0 0 0 0 0 0 0 0 0 0 0 0
1 1 1 1 1 1 1 1 1 1 1 1 1 1 1 1 1 1 1 1 1 1 0 0 0 0 0 0 0 0 0 0 0 0 0 0 0 0 0 0 0 0 0
1 1 1 1 1 1 1 1 1 1 1 2 1 1 1 1 1 1 1 1 1 1 0 0 0 0 0 0 0 0 0 0 0 0 0 0 0 0 0 0 0 0 0
1 1 1 1 1 1 1 1 2 2 2 2 2 1 1 1 1 1 1 1 1 0 0 0 0 0 0 0 0 0 0 0 0 0 0 0 0 0 0 0 0 0 0
1 1 1 1 1 1 1 2 2 2 2 2 2 1 1 1 1 1 1 1 1 0 0 0 0 0 0 0 0 0 0 0 0 0 0 0 0 0 0 0 0 0 0
1 1 1 1 1 1 1 1 2 2 2 2 1 1 1 1 1 1 1 1 0 0 0 0 0 0 0 0 0 0 0 0 0 0 0 0 0 0 0 0 0 0 0
1 1 1 1 1 1 1 1 1 1 1 1 1 1 1 1 1 1 1 1 1 0 0 0 0 0 0 0 0 0 0 0 0 0 0 0 0 0 0 0 0 0 0
1 1 1 1 1 1 1 1 1 1 1 1 1 1 1 1 1 1 1 1 0 0 0 0 0 0 0 0 0 0 0 0 0 0 0 0 0 0 0 0 0 0 0
1 1 1 1 1 1 1 1 1 1 1 1 1 1 1 1 1 1 1 0 0 0 0 0 0 0 0 0 0 0 0 0 0 0 0 0 0 0 0 0 0 0 0
1 1 1 1 1 1 1 1 1 1 1 1 1 1 1 1 1 1 0 0 0 0 0 0 0 0 0 0 0 0 0 0 0 0 0 0 0 0 0 0 0 0 0
1 1 1 1 1 1 1 1 1 0 0 1 1 1 1 1 1 0 0 0 0 0 0 0 0 0 0 0 0 0 0 0 0 0 0 0 0 0 0 0 0 0 0
1 1 1 1 1 1 1 1 0 0 0 0 0 0 0 0 0 0 0 0 0 0 0 0 0 0 0 0 0 0 0 0 0 0 0 0 0 0 0 0 0 0 0
1 1 1 1 1 1 1 0 0 0 0 0 0 0 0 0 0 0 0 0 0 0 0 0 0 0 0 0 0 0 0 0 0 0 0 0 0 0 0 0 0 0 0
1 1 1 1 1 1 0 0 0 0 0 0 0 0 0 0 0 0 0 0 0 0 0 0 0 0 0 0 0 0 0 0 0 0 0 0 0 0 0 0 0 0 0
1 1 1 1 1 0 0 0 0 0 0 0 0 0 0 0 0 0 0 0 0 0 0 0 0 0 0 0 0 0 0 0 0 0 0 0 0 0 0 0 0 0 0
Wind_Speed
9 9 9 9 8 7 6 6 5 4 4 2 2 1 1 0 0 0 1 2 2 2 2 1 1 1 1 2 1 1 1 1 1 1 1 2 1 0 1 2 2 3 3
7 9 9 9 9 8 7 7 6 5 5 3 2 2 2 1 1 0 0 1 1 1 2 2 2 2 1 1 1 1 1 0 1 2 1 2 3 2 1 1 2 2 2
12 11 10 9 9 9 9 8 7 6 5 4 2 2 2 1 1 1 0 1 1 1 1 2 2 2 2 1 1 1 2 1 1 2 3 2 2 2 2 1 1 1 2
11 11 11 10 10 10 9 8 7 6 5 5 4 4 3 2 2 1 1 2 2 2 2 2 2 2 2 2 2 2 2 2 1 1 1 2 3 2 1 2 1 0 1
13 13 12 12 11 10 9 8 7 6 5 5 5 4 3 2 1 1 2 2 1 1 2 2 2 2 2 2 2 1 2 2 2 1 1 0 0 1 2 1 2 1 1
13 12 11 10 8 8 8 8 7 6 6 6 5 5 4 3 2 2 2 1 1 1 2 2 2 2 2 2 2 2 2 2 1 1 1 1 1 1 2 1 0 1 2
11 11 11 10 9 9 9 8 8 7 6 6 5 5 5 4 4 3 2 2 1 1 2 1 1 1 1 2 2 2 1 1 1 1 1 1 1 2 2 2 1 0 1
9 11 12 11 11 11 10 9 9 8 7 7 6 5 4 3 3 3 2 2 2 2 2 2 2 1 2 2 2 1 1 1 1 1 1 1 1 1 2 3 3 1 1
9 10 10 10 10 10 10 10 10 8 7 7 6 5 4 4 3 3 2 2 2 1 1 2 2 2 2 2 2 1 1 1 0 0 1 1 0 1 1 2 3 3 2
6 7 8 9 9 9 8 8 8 8 7 7 6 5 4 4 3 3 2 2 1 0 1 1 2 2 2 2 2 1 1 1 0 1 1 1 1 1 1 1 1 2 3
6 6 6 7 7 6 6 7 7 6 6 6 6 5 4 4 3 3 2 2 1 1 1 1 2 2 2 2 2 1 2 2 2 2 2 2 2 2 1 1 1 1 2
5 5 5 5 5 5 6 6 6 6 6 6 6 5 5 4 4 3 2 2 2 1 1 2 2 2 2 2 2 2 2 2 2 2 3 2 2 2 2 2 1 1 1
5 4 4 5 5 5 5 5 5 5 5 5 6 5 5 4 4 3 2 2 2 2 2 2 2 1 2 2 2 2 3 3 3 3 3 2 3 3 2 2 2 1 2
6 5 4 4 4 4 5 5 5 5 5 5 5 5 5 5 4 3 3 3 3 3 2 2 2 2 2 2 2 3 3 3 3 3 3 3 3 2 2 2 2 2 2
5 5 5 4 4 4 4 4 4 4 5 5 5 4 4 4 4 3 3 3 3 3 3 3 3 3 3 3 3 3 3 3 3 3 3 3 5 5 3 3 2 3 2
5 4 5 5 5 4 4 4 4 4 4 5 4 4 4 4 4 4 4 4 3 3 3 4 4 3 3 5 6 5 4 3 3 2 2 3 4 6 6 6 5 4 3
6 5 4 4 4 4 5 5 4 5 4 4 5 4 4 4 4 4 4 4 3 3 4 3 3 3 3 5 6 6 4 4 3 2 2 2 4 4 3 5 7 6 6
6 6 5 4 4 4 4 5 5 5 4 4 4 4 4 4 4 4 4 3 3 4 3 3 3 3 3 4 5 5 4 3 3 2 2 2 2 3 3 4 5 4 4
6 6 6 5 4 4 5 6 5 5 4 4 4 4 4 4 4 4 3 3 4 3 3 3 3 4 3 3 4 4 3 3 2 2 2 2 2 3 5 5 4 3 3
6 6 6 6 5 3 5 7 6 5 5 4 4 4 4 4 4 4 3 3 3 3 3 3 3 4 3 3 4 4 3 3 2 2 2 3 3 3 4 4 4 3 1
7 7 6 6 4 4 5 7 6 4 3 4 4 4 4 4 4 4 3 3 3 4 4 4 3 3 3 3 4 4 2 2 2 2 1 2 3 4 3 3 2 2 2
7 7 7 6 3 4 6 6 4 3 3 5 5 5 4 4 4 4 4 4 4 4 4 3 3 3 3 3 3 4 4 3 3 2 1 1 3 4 4 3 3 5 5
7 6 7 6 4 4 5 6 3 4 5 5 5 5 5 4 4 4 4 4 3 3 3 3 2 2 2 3 4 4 4 4 3 2 2 3 4 4 3 4 5 4 3
5 6 7 6 4 3 4 4 4 5 6 6 5 4 5 4 4 4 3 3 3 3 3 3 3 2 2 2 2 2 2 3 3 2 3 5 5 4 3 4 3 2 2
4 5 6 6 4 4 4 4 4 5 6 5 5 5 4 5 5 4 4 2 1 2 3 3 3 3 1 1 1 2 1 1 2 3 3 3 3 3 3 3 2 2 2
5 5 5 5 5 4 4 3 3 5 6 5 4 4 4 4 4 4 4 7 5 5 4 4 4 2 2 3 3 3 3 4 5 5 3 2 2 2 1 2 2 2 2
Wind_Direction
184 176 174 172 165 163 162 162 163 165 151 142 142 141 170 176 110 197 182 178 189 192 181 191 186 163 165 193 181 160 160 222 138 80 358 335 318 269 215 182 161 176 180
174 176 176 176 172 171 169 164 166 167 164 163 161 156 151 159 167 144 116 164 182 190 178 172 192 187 164 160 153 140 140 210 143 138 110 355 350 350 271 192 177 185 172
180 180 177 179 175 176 176 174 172 170 170 161 137 119 86 50 41 0 300 247 205 194 183 182 186 180 162 180 191 168 159 197 252 166 152 159 223 298 327 303 191 171 162
183 183 180 181 183 185 179 172 171 171 173 164 153 151 152 169 201 194 209 234 220 206 201 201 191 184 173 179 196 170 164 161 213 255 205 185 172 167 301 334 356 117 172
186 187 186 184 184 181 176 173 171 174 173 167 164 160 167 182 187 178 197 227 243 236 219 200 197 193 189 188 181 161 162 162 180 207 232 207 159 145 157 273 333 2 332
187 186 183 176 175 173 173 172 170 178 177 172 168 169 176 179 170 183 196 227 253 272 258 217 195 193 192 191 189 178 169 175 179 193 169 157 162 181 156 177 230 325 314
177 179 177 175 175 174 176 175 174 181 181 176 178 180 184 181 182 189 192 202 227 255 259 226 199 195 190 178 161 151 154 156 170 190 195 176 186 171 149 138 147 61 324
175 179 181 179 179 180 179 176 180 184 182 182 187 186 186 182 185 190 184 195 217 236 239 199 188 179 160 144 130 129 137 118 169 215 205 182 216 161 151 156 154 143 344
177 177 176 176 178 181 183 182 184 185 185 185 183 185 188 183 183 182 185 193 210 221 213 185 178 169 140 128 128 109 110 99 120 202 195 178 233 173 162 159 160 160 179
158 160 166 175 179 182 181 176 180 184 183 184 186 189 189 185 176 164 173 182 192 200 136 148 150 136 119 118 115 111 100 98 43 77 73 54 41 69 97 143 150 154 160
151 162 165 170 170 165 168 170 172 173 176 183 189 185 176 173 170 173 183 182 168 156 142 138 132 131 122 124 117 113 106 92 54 47 71 48 47 58 55 89 106 116 134
137 152 153 144 148 154 160 166 168 170 177 180 179 176 171 166 169 169 171 153 138 136 135 137 127 129 126 125 125 132 107 94 76 55 63 48 53 55 51 64 67 85 109
111 113 127 139 148 153 155 159 163 170 170 165 164 162 162 166 166 161 150 129 121 105 93 102 104 113 121 115 117 118 102 93 87 78 76 61 65 56 52 65 67 70 80
121 113 122 131 134 141 150 155 162 163 155 154 156 160 168 166 160 150 135 127 122 117 113 105 110 112 103 99 98 98 95 88 78 75 83 74 74 72 71 74 71 79 76
120 125 129 124 118 125 136 145 152 151 148 143 150 165 161 147 138 131 129 120 116 120 122 109 93 91 93 90 102 105 100 87 75 70 76 77 78 78 79 88 92 91 86
134 122 119 121 123 126 132 126 125 132 135 134 136 138 133 132 130 133 128 119 111 102 98 96 95 89 87 90 97 109 107 101 92 82 72 76 66 68 65 69 79 94 111
143 133 128 118 118 123 127 126 126 118 115 128 127 125 131 134 136 138 127 126 123 107 100 104 104 99 90 100 102 107 115 105 102 98 79 74 66 61 63 66 66 60 66
144 136 124 109 109 113 116 117 113 106 120 129 123 124 129 131 131 126 127 134 127 121 115 114 116 108 89 98 104 109 107 99 96 98 101 98 72 58 82 80 67 55 43
134 132 121 115 114 125 126 118 116 114 115 123 129 126 127 132 129 131 135 133 126 126 127 127 121 111 92 99 110 108 106 99 90 91 83 93 93 71 87 93 88 71 44
113 114 113 107 106 120 126 117 118 127 137 145 139 134 128 130 133 138 133 121 123 128 116 102 100 104 102 102 106 104 102 97 84 62 57 64 83 85 96 109 110 100 56
105 106 104 99 100 113 115 112 114 123 137 132 123 115 117 122 122 117 113 113 111 105 98 90 73 72 81 91 96 101 108 120 108 86 51 37 75 80 83 96 111 132 126
106 108 105 95 90 101 107 109 114 119 115 117 113 111 106 111 108 107 99 102 109 107 101 92 69 47 48 65 82 91 96 113 111 104 69 52 71 73 74 77 76 83 89
114 115 112 103 90 86 105 116 121 116 110 105 103 100 90 82 93 107 114 113 107 110 114 112 98 56 33 41 64 86 93 94 103 108 93 77 75 70 63 60 76 84 85
111 111 109 109 102 87 86 102 117 112 106 105 103 98 94 81 74 76 86 107 120 126 125 120 120 99 56 38 46 64 81 86 86 82 71 70 68 62 57 54 60 69 91
107 108 115 120 118 101 88 90 101 108 106 104 104 99 94 96 85 72 59 79 88 148 149 151 153 147 154 238 166 125 112 123 117 101 71 61 63 56 44 40 46 50 62
115 111 110 116 113 102 92 89 101 110 117 116 114 116 113 107 102 100 71 46 57 68 93 124 137 135 153 142 120 100 90 97 112 102 88 81 77 79 78 74 55 51 56